GFSNE_850_rhum_000.txt.gz
RH
14 17 20 24 29 30 32 34 54 74 70 61 60 63 68 66 61 63 68 71 77 79 79 78 78 82 80 77 81 72 86 92 87 85 71 73 85 86
20 24 28 36 39 35 32 38 54 66 76 68 73 72 70 69 65 73 82 87 86 81 80 75 73 74 87 80 79 92 89 70 70 71 73 67 72 84
24 36 44 51 50 42 51 73 78 78 79 73 74 70 76 72 70 88 91 87 90 76 76 76 78 82 87 82 76 73 73 76 75 81 75 78 72 76
38 52 59 60 53 52 70 83 83 81 86 94 76 78 74 80 98 91 73 69 75 74 80 81 75 73 72 73 76 76 91 97 91 85 82 87 92 91
55 61 62 61 60 64 81 83 96 98 96 94 85 80 74 100 94 69 74 71 61 69 80 81 83 83 86 90 97 94 83 80 78 81 77 77 80 76
58 59 61 67 68 86 85 95 88 74 78 85 97 90 98 90 85 82 74 75 76 92 95 93 91 90 91 85 84 86 89 87 85 85 82 84 90 93
56 60 68 75 79 88 88 91 93 96 97 99 89 98 97 83 88 87 94 88 96 97 82 81 93 90 86 86 88 92 95 96 92 96 95 91 95 99
64 72 75 76 79 88 88 87 91 97 93 99 96 86 93 95 90 99 98 97 89 85 91 94 98 89 89 91 94 94 91 88 96 87 92 98 98 98
74 77 82 81 87 81 81 95 94 95 96 93 85 89 100 94 98 100 98 100 99 94 92 100 89 98 81 79 90 96 95 92 94 98 99 98 99 99
76 81 85 82 67 90 93 96 96 84 64 77 94 96 98 96 96 99 97 98 98 89 93 99 91 89 76 80 74 72 99 100 98 100 98 98 97 99
73 76 79 63 91 91 97 96 91 78 69 98 100 95 91 95 99 96 95 100 98 97 75 99 89 95 91 84 69 74 98 96 95 98 99 100 100 99
82 83 74 91 97 96 97 93 81 78 98 97 76 67 70 78 100 100 97 99 100 100 76 98 96 98 98 90 84 91 82 87 100 99 99 98 98 98
92 90 78 97 97 89 88 89 94 95 92 79 75 82 88 89 91 95 97 98 97 97 80 98 98 98 100 98 93 87 81 74 82 96 96 96 97 97
97 85 94 99 94 92 94 96 98 98 83 88 96 95 91 90 93 94 96 95 96 98 94 97 97 100 98 98 100 78 75 79 96 96 96 97 98 98
89 97 97 96 92 77 88 100 100 93 94 95 96 92 95 94 93 94 91 93 93 94 95 97 98 96 98 97 99 86 86 83 96 97 97 98 98 99
97 97 86 74 80 86 79 80 90 100 98 98 99 92 93 96 96 97 96 93 95 89 90 96 96 98 99 94 90 86 96 98 92 98 98 98 99 99
94 86 74 80 77 81 82 87 90 98 98 95 95 96 94 96 94 95 95 95 97 96 94 90 94 97 96 95 93 96 96 97 98 98 97 98 99 100
94 86 93 93 97 94 95 94 91 95 95 94 94 96 96 98 96 95 95 96 96 96 96 95 94 90 91 93 95 96 98 98 98 98 97 98 98 99
91 98 100 99 96 95 97 98 97 93 96 93 95 96 97 94 97 96 96 96 94 97 96 96 96 96 94 96 97 98 98 97 97 98 98 98 98 98
98 100 98 94 95 98 96 97 94 92 92 93 96 97 96 98 96 97 97 96 97 95 94 95 96 97 96 97 96 98 98 97 97 98 98 98 98 99
96 94 88 94 97 98 96 96 97 96 98 97 95 96 96 97 96 97 97 96 98 95 94 95 97 98 97 95 96 98 98 98 98 98 96 96 99 98
94 88 87 96 98 98 96 96 95 94 95 95 96 97 97 97 97 97 97 96 96 97 96 95 96 96 95 95 97 98 100 99 96 96 98 96 98 99
89 85 95 96 97 96 97 98 96 94 97 97 96 97 98 97 96 96 96 96 95 91 94 90 96 96 95 95 98 98 95 90 89 91 97 99 98 98

GFSNE_850_rhum_003.txt.gz
RH
19 20 22 28 32 35 36 37 58 88 80 74 75 78 78 74 72 78 75 73 77 82 84 83 81 86 79 76 75 73 72 94 91 89 97 91 88 90
20 22 25 33 36 38 41 43 58 84 97 74 83 85 84 88 73 76 75 88 89 92 85 82 75 75 76 76 81 88 95 93 94 92 94 95 79 80
22 27 33 43 44 46 50 50 67 83 93 74 78 76 70 73 84 85 98 97 90 85 79 74 74 76 78 85 92 92 90 92 80 76 75 86 82 89
28 35 40 47 54 61 57 62 74 85 99 95 78 71 69 83 66 68 98 67 75 77 77 78 79 81 88 91 87 92 85 93 95 96 99 95 95 88
37 42 47 58 66 71 77 82 84 98 97 94 88 73 90 78 90 98 65 65 74 77 77 90 91 90 87 85 88 89 97 93 92 94 93 89 84 80
38 48 57 69 75 86 88 89 98 93 90 85 94 96 86 92 87 81 72 83 85 77 98 93 89 86 88 89 86 86 88 86 87 85 86 85 83 82
46 51 61 70 81 88 88 92 80 89 98 98 100 98 90 80 79 78 98 95 96 94 93 87 89 94 92 91 88 90 93 92 94 97 97 95 97 96
40 43 54 60 60 81 84 87 90 95 96 98 96 96 66 91 95 100 100 100 96 91 95 95 94 86 75 73 90 98 90 87 94 94 92 94 96 98
50 55 59 66 64 69 73 89 97 97 98 95 86 88 99 95 98 95 99 99 99 96 100 99 76 80 68 72 84 99 100 96 93 97 100 98 97 95
65 68 75 77 74 94 97 92 84 77 68 78 97 95 98 97 98 99 98 98 96 91 99 98 86 88 82 80 69 73 100 100 99 97 95 97 98 98
73 81 90 96 88 98 97 97 88 78 70 91 100 98 93 96 100 97 94 99 100 99 91 100 85 98 97 87 79 87 100 97 94 97 96 96 97 99
95 90 83 97 96 96 93 97 92 76 98 97 79 70 71 77 99 98 97 97 100 100 93 97 95 100 97 91 84 90 89 87 100 100 100 100 100 99
87 90 88 97 92 92 91 94 93 96 92 83 77 79 85 87 87 94 96 98 97 98 87 98 98 94 100 99 91 88 88 83 85 91 95 96 96 98
95 89 93 100 97 95 94 100 99 99 85 88 94 96 88 86 85 89 93 95 96 97 94 96 97 100 98 99 99 75 80 84 94 92 96 96 96 97
93 95 90 99 82 66 81 100 100 89 99 100 99 88 92 91 90 93 92 91 90 92 95 95 100 98 99 96 97 88 97 86 93 97 97 98 98 98
95 96 85 68 64 75 78 81 89 99 100 100 97 91 92 91 92 96 96 92 95 80 84 96 98 98 95 94 97 95 97 97 94 99 98 98 98 98
95 88 67 69 73 80 83 87 89 92 95 93 93 94 93 95 94 94 96 94 96 96 90 89 92 96 97 97 95 97 97 96 98 98 97 94 97 99
97 77 78 80 86 94 94 92 90 92 94 94 91 96 97 98 96 94 95 98 96 94 96 96 93 84 84 85 96 94 98 98 98 97 96 98 98 100
81 83 86 84 94 96 98 99 97 94 96 94 95 96 97 95 96 95 96 97 93 97 96 96 96 98 96 97 96 98 99 98 97 96 96 98 98 98
85 90 84 90 97 99 99 99 94 92 93 92 96 97 97 99 95 96 98 98 97 96 94 95 96 97 99 97 96 98 98 98 97 97 97 97 98 98
87 82 84 96 99 100 98 95 96 96 96 97 96 96 97 98 96 98 100 96 99 96 95 94 98 99 98 94 97 96 97 98 98 98 92 98 97 100
88 80 90 97 100 98 95 95 93 93 94 96 96 97 97 97 97 98 99 98 97 99 95 96 96 95 93 100 100 99 97 97 97 98 97 98 99 98
83 83 97 99 99 97 96 94 96 95 98 97 96 96 97 96 96 97 98 97 97 96 90 93 95 94 93 98 97 96 92 95 94 97 97 97 97 98

GFSNE_850_rhum_006.txt.gz
RH
23 23 23 25 29 33 39 43 53 72 63 67 73 65 72 76 74 80 75 74 83 81 83 86 96 89 84 84 80 79 79 78 78 77 92 92 86 95
26 26 25 27 30 37 44 51 56 60 90 62 66 77 81 69 63 77 77 86 86 90 94 89 78 75 76 78 78 79 79 90 93 95 92 94 98 97
29 29 28 33 36 46 58 66 73 76 85 64 70 71 67 60 73 76 87 100 96 94 92 78 77 80 80 81 85 85 94 92 95 93 93 88 92 96
31 30 30 38 44 54 72 78 88 82 93 91 83 70 60 74 76 78 83 81 73 72 84 83 83 82 87 92 95 94 96 91 94 91 94 98 99 98
31 32 36 39 47 62 75 87 88 97 99 96 86 76 81 90 95 87 70 79 82 87 88 88 92 92 92 93 88 92 95 96 98 93 98 96 94 93
33 30 30 37 48 79 90 91 91 83 79 88 89 88 100 96 86 81 84 92 97 100 94 99 97 94 94 93 93 91 92 91 86 87 90 92 91 91
34 34 43 51 59 89 91 86 90 93 97 97 95 93 94 86 85 86 100 100 100 99 95 91 92 96 90 91 86 94 99 97 94 96 94 97 98 95
44 56 61 64 66 76 69 92 100 98 93 92 99 96 94 85 86 100 100 100 96 97 96 91 97 95 85 76 80 100 98 94 94 94 95 94 97 97
64 68 72 74 66 72 78 90 97 86 88 91 85 88 98 96 99 96 99 99 100 100 100 93 81 82 74 69 73 98 100 100 98 99 100 98 94 94
74 76 87 73 87 96 97 98 83 76 72 77 95 95 98 98 99 100 99 99 96 90 100 97 85 90 84 83 76 95 100 100 99 99 99 99 98 99
80 87 82 95 91 98 96 98 94 75 70 90 100 93 84 86 98 97 93 98 99 94 85 100 93 100 90 81 79 89 98 96 98 100 99 98 99 97
97 88 86 98 96 100 96 98 92 75 97 96 78 72 69 71 82 94 99 98 100 98 81 98 94 100 96 90 82 78 79 80 95 98 100 100 100 97
90 88 86 95 97 93 94 93 91 95 94 85 76 74 77 80 84 86 92 100 96 97 81 99 96 94 100 96 84 76 91 92 94 91 95 96 97 98
94 87 93 99 98 96 90 99 100 100 84 84 87 86 84 83 86 86 88 91 95 97 94 97 97 99 97 97 99 76 86 90 96 92 96 96 96 97
93 98 88 98 68 61 74 98 93 84 91 96 95 86 86 89 88 89 86 89 86 88 94 97 99 98 97 96 97 90 97 85 89 99 96 97 96 97
95 94 82 67 62 73 77 78 83 90 100 99 95 89 90 89 88 93 94 93 93 80 81 93 98 98 95 96 97 95 96 97 94 96 97 97 96 98
99 84 68 64 69 79 80 84 88 92 96 94 94 92 91 90 89 95 95 95 97 95 85 84 89 95 96 97 94 96 96 96 98 98 96 98 96 97
89 72 70 71 84 90 91 91 89 92 94 95 93 96 95 95 96 96 98 100 98 91 96 98 90 82 70 73 97 96 99 100 97 97 97 98 96 98
72 74 76 81 91 94 98 99 96 92 96 95 95 94 96 97 98 98 98 98 91 94 93 95 95 100 100 98 77 99 97 100 100 97 97 97 99 98
75 81 78 87 95 99 100 100 94 93 94 92 95 97 96 98 98 98 99 97 96 97 88 85 95 97 99 98 96 94 98 96 99 99 97 96 98 99
80 75 75 92 96 100 98 96 97 96 96 96 95 96 97 98 97 100 100 99 98 97 93 90 96 97 97 90 89 93 96 97 97 98 100 100 99 97
80 73 82 93 97 97 97 97 94 95 95 96 96 97 97 98 98 100 99 98 97 98 94 92 88 89 89 92 95 94 95 96 96 96 97 99 99 98
79 74 90 94 96 98 98 96 96 97 97 97 97 96 98 97 98 99 99 98 98 95 96 88 83 90 91 92 92 92 93 96 96 96 96 96 97 98

GFSNE_850_rhum_009.txt.gz
RH
26 28 30 30 30 32 36 37 53 62 57 54 68 70 84 90 88 84 86 89 86 84 80 81 82 89 97 93 80 81 80 80 84 89 85 80 81 77
32 33 33 32 31 32 35 42 54 74 82 62 69 86 90 89 88 83 76 68 80 90 92 89 93 84 80 78 79 78 81 87 94 95 95 95 96 96
35 34 31 29 26 25 33 46 60 74 90 65 86 79 89 89 84 92 98 99 98 95 89 89 90 86 87 91 91 90 88 92 92 96 98 98 98 98
34 30 25 22 19 24 33 44 63 77 90 92 86 88 82 91 96 100 100 93 87 87 91 89 88 89 91 92 96 96 98 98 99 94 98 97 96 96
31 26 25 25 30 36 45 63 86 96 99 99 87 81 98 100 99 90 85 77 82 90 93 95 97 97 98 95 95 95 93 96 93 93 97 98 98 98
25 30 33 42 47 56 86 98 97 92 94 95 98 97 94 84 85 83 85 87 94 96 94 99 98 96 97 96 98 97 95 95 93 92 93 95 96 90
29 36 46 54 64 90 95 95 96 95 98 97 99 96 91 85 86 90 99 99 98 97 92 94 91 96 92 97 98 100 100 100 98 97 97 96 97 96
41 42 58 68 81 91 92 98 100 98 95 98 100 91 83 92 95 100 100 100 100 93 97 96 89 90 90 89 98 100 100 100 97 96 96 98 95 93
47 65 79 87 75 84 83 99 98 94 88 88 90 91 97 100 98 93 95 98 100 93 100 100 86 97 89 84 92 100 100 100 99 99 100 100 98 96
71 76 87 82 93 98 98 100 92 82 92 91 99 95 98 98 100 100 96 95 93 82 100 99 83 97 92 81 76 90 100 100 100 99 99 98 98 99
74 86 91 100 100 93 96 93 97 94 72 92 100 100 81 82 91 100 99 100 98 90 86 100 98 100 96 74 76 91 100 100 100 100 100 100 100 100
100 100 94 100 95 99 94 96 100 76 98 100 82 73 71 69 74 92 97 98 100 98 86 98 100 100 96 85 82 80 94 94 98 100 100 100 100 100
98 100 98 98 98 94 95 95 91 97 100 82 75 73 76 79 82 86 92 98 97 98 81 99 96 93 100 97 77 76 96 93 96 89 93 97 97 98
100 97 95 99 97 96 85 94 100 100 83 86 94 94 88 80 84 84 88 89 92 96 93 98 97 99 98 99 100 76 89 84 94 95 97 96 98 98
94 98 100 95 63 58 71 82 82 83 95 100 100 89 88 89 85 87 86 86 85 86 95 98 99 98 100 98 97 84 96 85 89 96 96 97 98 96
97 95 72 61 56 70 75 79 84 90 100 100 99 89 90 89 89 92 94 92 90 78 79 95 97 99 96 92 97 94 89 100 96 96 97 97 96 97
100 75 63 58 64 78 79 82 88 91 94 94 94 91 92 93 88 91 96 94 96 91 82 77 88 90 75 74 79 84 93 98 100 96 97 99 94 97
82 66 65 65 80 88 90 89 88 91 94 96 94 97 96 95 95 93 96 96 94 89 90 92 91 85 71 63 74 92 93 100 96 96 97 99 97 100
66 67 69 72 87 91 94 95 93 94 97 96 96 93 95 96 97 95 95 95 92 92 97 92 96 100 100 100 72 83 98 96 98 98 98 98 98 100
68 71 69 79 90 94 97 98 94 94 96 94 95 97 97 98 96 96 95 97 95 98 91 87 98 99 100 100 99 73 91 98 98 98 99 98 99 99
71 68 70 88 93 98 98 97 97 97 98 97 96 97 97 97 94 96 96 98 99 96 95 93 98 95 91 87 93 84 76 93 98 97 99 100 100 96
72 68 75 92 96 98 97 96 93 95 95 96 96 97 97 97 96 96 97 97 96 95 96 92 95 89 86 89 86 85 85 79 78 96 97 100 99 99
72 69 88 94 96 97 97 95 95 95 97 96 97 97 98 96 97 97 97 98 97 97 93 92 88 89 89 86 82 78 84 81 84 91 95 96 97 98

GFSNE_850_rhum_012.txt.gz
RH
29 32 35 38 37 45 53 59 57 52 44 41 42 47 57 65 69 75 77 78 82 89 91 89 89 90 90 92 89 89 85 93 93 88 81 86 86 90
33 35 36 38 37 40 55 61 62 60 58 48 51 56 64 68 72 75 74 82 83 87 89 89 88 87 90 85 87 83 84 85 91 86 91 96 95 93
34 36 34 31 30 46 56 60 63 65 65 58 61 66 72 74 72 75 78 82 81 80 80 83 88 90 93 95 96 95 92 94 92 94 93 93 94 98
35 35 32 37 32 48 59 63 69 72 73 76 73 75 75 79 83 82 78 70 69 69 78 87 94 95 95 96 94 95 96 96 98 98 98 98 98 98
36 32 34 35 48 59 64 74 79 78 80 81 78 75 86 91 87 77 72 69 72 78 81 86 90 95 98 98 96 94 94 95 98 97 95 95 93 93
34 40 49 50 69 75 81 81 77 79 77 81 86 97 92 83 76 67 70 77 84 86 84 93 92 93 94 91 93 96 98 96 96 96 96 96 96 96
54 66 66 66 49 71 96 91 88 87 89 90 98 94 87 73 66 74 87 91 88 92 84 87 81 84 89 92 93 94 94 95 96 98 98 99 98 95
69 63 73 87 90 96 94 94 94 95 96 100 98 90 73 70 78 89 100 99 96 87 88 86 92 90 90 89 90 94 96 98 99 99 98 99 99 98
67 79 84 82 93 90 95 95 95 97 100 93 90 76 81 87 89 94 95 98 97 88 97 91 87 90 88 86 92 98 100 100 100 100 100 99 99 98
84 87 86 88 89 95 98 95 98 90 81 83 86 90 93 94 97 98 95 95 92 96 95 96 83 91 88 77 74 76 100 100 100 100 100 100 99 100
82 82 88 91 95 92 98 92 87 78 81 91 99 100 98 100 100 99 95 98 98 97 96 94 89 96 90 72 73 76 92 98 96 96 98 98 100 100
78 82 89 94 90 97 96 90 87 86 93 96 93 93 94 97 100 100 96 98 100 98 88 97 100 100 96 84 78 65 70 74 93 96 97 99 98 98
83 87 88 89 96 95 96 94 93 99 100 98 94 94 95 95 99 97 99 100 99 98 79 99 99 100 100 96 73 67 76 79 90 87 90 94 98 98
96 89 89 96 97 96 94 97 100 100 100 98 100 100 100 91 87 86 83 86 92 95 87 96 97 100 100 99 100 73 77 79 87 92 94 91 90 95
94 94 96 97 81 58 79 86 91 100 100 100 100 100 99 86 87 90 86 88 86 82 82 85 100 97 100 98 100 95 98 80 79 95 97 97 97 97
95 96 95 82 93 89 89 98 100 100 100 100 100 100 100 95 90 93 97 93 96 77 77 83 94 99 96 100 100 98 74 100 97 96 99 100 97 98
99 93 84 84 90 96 98 100 100 100 100 100 100 99 98 99 89 90 96 96 99 96 85 80 86 100 98 99 93 74 93 98 92 98 97 99 99 97
98 88 88 94 99 100 100 98 97 98 100 98 95 98 98 95 94 91 96 98 100 97 100 97 99 98 95 83 90 94 94 92 95 98 99 98 98 92
92 93 100 100 100 100 100 98 93 93 96 98 98 96 96 96 96 94 94 95 94 96 100 100 100 100 97 98 73 69 95 91 96 100 100 99 97 96
87 99 100 99 98 94 93 96 94 93 96 96 96 97 96 97 94 95 95 98 97 100 100 96 100 100 98 100 100 68 67 97 99 98 100 97 98 97
88 93 96 83 90 94 98 97 96 95 97 96 95 96 96 96 95 96 96 96 100 100 100 100 86 94 94 97 100 95 68 80 98 98 97 100 99 85
85 87 69 87 94 98 97 98 96 96 97 97 96 96 97 97 96 95 96 97 96 100 100 100 86 100 100 100 100 100 95 85 88 97 97 98 98 98
76 67 73 92 97 98 98 99 97 96 97 96 96 96 96 96 97 97 97 97 97 100 100 100 100 100 99 99 100 99 93 90 92 94 93 98 98 98

GFSNE_850_rhum_015.txt.gz
RH
30 32 36 36 39 43 47 52 60 61 55 46 42 42 45 50 56 65 69 71 76 81 83 84 86 86 86 86 87 88 93 91 94 91 89 84 88 96
36 32 32 35 39 39 44 54 56 59 62 55 55 55 55 61 67 70 71 77 79 77 80 84 84 85 86 87 89 92 94 97 98 96 98 97 95 95
33 35 34 37 38 41 41 48 55 60 64 64 67 69 70 72 71 76 81 70 76 73 74 77 82 87 90 92 95 97 95 96 98 99 97 98 98 97
32 41 42 53 46 46 51 56 59 63 70 74 76 77 76 71 81 88 85 75 72 66 73 81 86 88 90 91 95 97 95 98 95 98 98 99 98 98
44 51 52 54 55 57 62 68 73 77 77 77 79 78 78 87 94 87 74 71 66 72 77 84 88 90 95 93 91 91 92 92 95 97 99 99 98 98
50 62 61 61 64 70 71 86 86 85 87 87 83 80 95 97 84 74 69 72 80 83 82 82 90 89 90 87 91 96 95 96 96 96 95 98 96 98
51 57 61 65 69 87 95 93 92 88 87 84 93 100 97 85 80 74 80 89 74 98 84 75 88 76 77 90 92 95 96 96 96 97 98 99 99 99
51 50 61 70 78 84 90 91 91 91 96 95 99 98 94 83 79 90 83 98 100 77 95 73 88 85 83 86 91 93 94 98 100 100 100 99 99 99
50 67 79 77 83 87 88 90 85 96 100 94 95 88 86 82 78 88 99 98 98 76 90 80 82 82 78 79 92 96 99 98 100 100 100 100 100 100
70 77 78 79 84 90 84 93 86 83 82 82 84 89 85 91 98 98 98 88 84 82 100 96 83 81 88 80 61 62 68 99 99 100 100 98 96 95
72 72 76 82 86 87 95 91 91 87 82 85 92 98 98 95 95 94 84 97 95 94 98 100 93 89 84 65 61 70 83 72 71 76 93 100 100 97
77 78 79 85 87 90 96 95 90 86 86 89 90 90 91 90 95 94 97 96 97 100 87 96 97 99 96 84 76 63 58 63 69 72 82 94 97 98
89 87 81 87 92 93 94 94 93 98 95 96 92 91 91 94 97 92 89 99 96 94 79 100 97 96 100 99 76 67 68 65 67 67 68 75 92 98
90 85 89 93 94 95 96 97 100 100 96 95 93 94 98 94 88 87 87 90 99 100 86 98 98 100 99 97 97 71 70 68 73 72 77 88 93 93
89 94 94 96 95 88 89 100 100 95 96 94 94 97 96 93 90 89 92 100 95 85 83 87 100 100 100 98 99 88 98 76 64 74 93 97 96 96
92 90 87 92 81 85 88 90 94 97 97 95 94 95 96 91 89 92 96 91 100 79 75 86 100 100 97 97 100 100 97 100 90 100 100 97 91 96
98 77 80 78 83 86 92 94 97 100 100 100 99 96 93 95 88 90 94 100 100 100 89 79 88 99 100 98 99 88 98 100 98 96 100 99 84 98
84 82 82 87 92 95 98 90 90 94 98 99 96 97 99 96 94 91 96 99 100 100 100 95 100 99 88 91 97 95 92 92 92 92 96 100 92 78
81 86 88 94 98 100 100 98 95 95 96 97 97 96 96 95 97 94 98 98 96 93 88 100 100 98 99 98 76 98 98 94 97 100 100 100 99 83
78 89 88 92 92 98 96 99 98 94 94 96 95 97 96 97 97 96 97 100 96 92 96 94 100 99 98 98 97 74 76 98 97 99 97 97 94 100
88 88 87 85 88 97 99 99 98 95 96 97 95 96 96 97 95 96 97 96 99 98 99 96 98 100 99 98 98 94 79 87 98 98 97 99 98 98
87 79 70 75 95 99 99 98 97 94 96 97 96 96 96 97 96 96 96 97 97 97 97 94 95 97 100 100 97 95 92 93 87 97 97 98 99 98
73 65 66 90 98 98 99 98 96 95 97 97 95 95 96 96 96 97 97 97 98 97 96 94 95 100 99 98 99 96 96 94 96 93 92 98 97 98

GFSNE_850_rhum_018.txt.gz
RH
42 33 30 28 28 34 42 47 54 64 60 42 46 41 35 33 34 44 54 60 76 84 86 84 83 86 84 84 84 86 87 93 97 97 98 98 98 98
36 31 27 25 29 38 40 39 39 50 59 48 48 52 60 66 60 72 70 72 76 83 82 84 84 84 84 86 89 95 97 98 99 98 98 98 98 99
30 26 24 32 40 40 38 33 36 50 60 56 62 74 78 79 79 72 69 87 80 79 80 83 79 84 87 89 94 94 96 98 99 99 100 99 98 99
23 25 35 45 45 40 37 45 58 61 71 80 84 84 86 78 67 78 91 80 67 74 78 79 86 89 91 92 93 96 96 96 96 98 99 99 98 99
27 40 45 48 39 41 52 58 62 64 80 88 85 81 73 72 86 82 78 69 77 71 80 83 88 95 95 94 92 90 92 94 95 96 98 99 98 98
34 37 43 48 55 64 68 72 84 90 96 92 87 92 93 89 96 86 79 80 71 70 70 59 92 56 79 90 94 96 100 99 97 97 94 96 98 99
21 20 36 53 61 68 89 89 93 97 92 98 100 98 99 84 94 88 86 79 70 75 94 63 71 61 60 61 66 68 100 99 99 98 100 100 99 100
14 22 36 47 54 83 88 89 89 95 93 93 99 96 89 93 90 86 78 86 100 93 89 67 69 64 66 68 68 98 100 100 100 100 100 100 100 100
20 44 58 67 74 78 82 92 92 90 95 95 88 91 92 90 90 89 94 100 99 76 87 79 67 75 75 69 67 83 98 99 99 100 100 100 100 100
35 58 73 73 77 85 88 91 97 88 79 90 95 94 94 94 97 98 99 99 82 69 90 98 74 80 74 70 64 61 62 67 98 98 98 100 100 100
43 63 70 83 84 88 92 87 90 91 83 80 95 100 100 100 100 97 93 98 94 86 88 100 83 88 78 68 65 72 75 88 66 66 82 98 100 100
39 60 80 91 92 91 89 97 96 86 85 93 83 74 71 76 82 91 98 100 96 94 81 97 94 100 96 88 77 68 64 63 66 67 66 72 74 86
92 87 82 90 93 92 93 96 94 96 95 90 79 77 76 79 84 87 89 99 98 96 74 99 96 97 100 96 81 70 76 67 70 65 64 64 66 75
93 89 88 94 95 95 95 94 98 98 90 87 90 82 83 84 85 87 85 88 90 97 82 94 96 99 97 97 97 82 76 73 78 75 71 70 69 70
92 96 97 96 94 91 80 95 99 87 91 94 89 83 87 88 88 86 81 85 88 83 82 84 100 99 98 99 100 92 95 77 75 84 82 83 84 86
86 92 80 65 83 81 72 76 82 86 97 98 93 89 90 91 88 91 96 93 96 79 74 82 89 100 99 96 100 96 80 100 85 85 93 96 86 91
98 81 61 65 63 63 71 78 81 87 92 94 94 94 92 94 91 92 94 97 100 94 87 76 82 91 90 95 99 84 85 95 93 98 100 100 82 93
94 76 69 69 70 72 78 83 85 90 94 95 95 96 96 96 96 92 95 95 97 92 92 85 91 90 85 95 96 94 88 89 88 94 95 100 100 93
68 63 68 71 70 74 87 93 91 91 96 96 96 96 97 95 97 94 94 98 96 92 87 92 96 99 99 98 89 98 96 93 96 91 93 100 100 93
65 69 71 70 69 82 93 95 93 93 95 94 96 97 97 97 95 96 96 100 96 94 97 89 93 97 98 98 100 72 80 97 98 99 92 94 93 87
67 67 65 63 77 93 94 95 95 95 98 98 95 96 96 97 95 96 97 96 100 100 100 94 96 98 98 94 100 90 75 81 96 98 97 99 98 100
69 65 60 73 94 96 96 97 96 94 96 96 96 96 96 97 96 96 97 98 98 100 97 97 95 97 95 98 98 94 95 82 79 91 97 98 99 99
66 63 72 92 95 95 98 96 94 92 96 97 97 97 97 96 99 97 97 99 100 97 97 97 100 97 93 97 97 96 96 89 91 89 84 97 99 100

GFSNE_850_rhum_021.txt.gz
RH
58 51 37 29 27 26 31 39 47 58 52 33 35 29 28 32 37 49 60 59 82 84 87 91 92 88 87 86 85 85 96 98 96 97 98 98 97 97
56 43 31 28 25 30 38 39 39 44 54 38 36 39 39 42 56 63 67 58 58 66 96 92 88 89 89 87 90 88 95 96 98 98 99 99 99 99
47 32 26 25 31 39 40 36 34 38 50 48 48 49 60 59 52 57 60 67 68 57 88 91 90 89 89 91 92 92 96 95 98 98 98 98 98 98
32 24 25 39 41 43 40 35 40 47 55 62 65 70 70 66 66 74 74 72 64 61 83 87 89 94 95 97 97 97 92 96 99 100 98 97 97 98
23 26 37 42 38 37 40 46 50 60 69 80 89 87 81 70 89 90 73 73 71 70 76 63 69 67 99 96 98 97 96 96 97 99 99 99 99 100
30 32 30 28 33 44 52 58 73 86 92 96 97 89 81 88 93 83 79 82 73 68 72 67 80 61 59 60 68 68 71 99 100 100 100 98 98 98
25 16 16 27 42 49 62 86 90 89 93 97 90 88 100 93 83 88 88 79 76 76 81 91 73 58 56 60 62 60 68 100 100 100 100 99 98 98
15 16 19 28 37 52 77 86 89 91 97 91 94 99 88 82 89 94 88 89 100 89 96 88 60 60 60 65 64 83 91 100 100 100 100 100 100 100
16 17 22 39 64 70 77 88 91 95 96 97 90 86 96 92 91 91 96 100 99 80 85 90 62 64 66 71 66 61 61 81 97 100 100 100 100 100
15 15 31 57 69 83 90 96 98 90 85 84 87 92 96 94 98 99 97 99 90 77 79 100 82 78 72 71 64 58 61 65 96 100 100 100 98 98
12 25 48 63 66 93 95 94 88 89 85 77 77 97 100 97 93 100 92 97 89 83 73 92 83 85 84 69 64 66 69 75 70 67 94 98 100 100
35 49 61 86 95 94 95 97 96 90 82 90 88 77 73 72 78 87 95 99 97 99 76 99 92 92 100 83 83 73 65 64 64 68 70 78 90 100
62 53 63 79 96 96 96 98 97 93 97 90 81 73 71 73 79 82 86 95 97 100 76 100 97 94 100 98 89 76 72 67 69 66 66 72 77 84
41 58 80 96 97 97 96 94 96 99 84 77 78 76 78 78 79 81 84 85 87 88 82 88 96 99 97 96 95 83 76 71 72 68 68 68 70 73
54 91 100 100 69 57 65 92 75 76 80 82 85 84 86 85 82 82 81 82 83 76 78 85 97 97 98 99 100 91 90 73 67 70 75 77 79 76
87 100 95 64 55 57 55 64 76 82 89 94 92 88 86 86 84 86 89 92 93 78 73 82 88 96 96 95 100 96 77 97 76 76 83 90 86 93
100 79 59 50 50 54 61 75 80 85 89 93 94 91 89 91 87 86 89 94 100 94 84 74 80 90 91 91 93 80 78 80 77 81 95 100 88 91
78 63 57 58 58 60 74 82 82 86 90 92 92 93 95 93 91 89 96 96 97 92 90 84 91 90 82 87 93 88 79 86 85 94 98 100 98 94
57 60 61 62 60 69 84 86 85 86 91 94 94 94 95 94 97 93 94 96 93 91 86 92 96 98 98 100 86 99 96 93 96 92 92 99 100 97
61 62 62 60 65 83 86 89 88 88 92 93 96 98 97 97 95 96 95 97 95 93 95 90 94 97 98 98 99 76 86 97 97 97 100 100 96 91
62 60 59 65 84 90 91 92 92 91 95 99 97 97 96 98 95 97 97 96 97 96 95 92 92 95 97 97 100 94 75 78 92 98 97 99 100 100
63 61 65 85 90 93 93 93 91 89 95 97 98 98 98 100 99 98 98 99 96 96 95 94 91 94 98 100 100 95 85 76 74 75 85 98 98 98
66 65 84 90 93 94 95 93 92 93 99 99 100 100 99 97 98 99 100 99 96 97 99 93 90 91 91 97 100 92 90 89 93 90 68 80 95 98

GFSNE_850_rhum_024.txt.gz
RH
55 57 56 46 32 26 24 27 38 52 47 33 26 24 26 28 27 32 34 35 35 53 73 94 95 94 92 90 88 91 95 92 94 97 99 99 98 98
56 58 52 37 28 24 29 38 42 46 54 39 32 32 33 31 38 45 43 44 48 54 69 94 95 94 92 93 92 90 92 97 96 98 98 98 98 98
58 56 41 28 23 31 39 40 38 38 44 47 44 46 50 44 41 40 41 53 50 41 80 96 97 95 94 94 94 98 97 96 99 98 98 98 98 98
58 44 29 23 31 38 36 32 34 38 48 57 67 63 64 57 64 60 54 40 48 50 57 97 97 97 98 99 100 100 99 98 98 99 97 99 98 98
45 31 31 32 34 30 28 33 42 49 58 77 83 87 80 69 68 62 58 56 58 58 59 65 58 59 88 100 100 98 97 97 98 98 100 100 100 100
33 28 29 25 20 23 32 41 54 71 79 82 88 91 84 73 78 82 72 65 67 64 58 66 53 68 66 56 52 55 59 62 83 100 100 100 99 100
30 25 18 17 22 32 45 61 80 80 82 92 96 90 85 86 82 74 84 79 77 65 65 83 62 65 49 49 53 58 55 72 100 100 100 100 100 100
20 16 17 19 25 34 55 72 86 93 95 96 95 94 88 83 76 89 92 97 96 77 82 78 67 68 58 61 60 57 62 98 100 100 100 100 100 99
17 17 16 18 26 39 53 64 82 92 95 93 95 87 87 79 94 93 96 99 92 70 80 84 71 69 64 66 63 61 59 64 89 100 100 100 100 99
18 15 14 22 29 46 67 84 92 95 95 88 85 91 98 94 98 99 96 90 86 80 80 95 76 74 73 68 60 58 58 60 63 99 100 100 100 100
15 18 30 28 41 79 90 97 95 91 84 82 83 92 90 87 82 90 80 95 90 88 81 92 77 85 77 71 62 65 66 67 68 68 93 100 100 100
17 19 19 33 74 95 96 100 96 86 88 92 76 70 67 69 74 83 90 99 100 99 89 96 91 92 99 90 81 75 67 66 64 66 74 96 99 100
17 16 24 50 100 98 97 98 92 96 98 82 68 65 67 70 74 79 85 92 96 98 79 99 95 93 100 98 92 77 73 70 71 69 67 69 76 96
25 38 67 98 100 94 73 59 97 94 65 70 72 74 77 75 76 79 82 85 88 90 83 96 96 98 98 95 95 79 77 76 76 72 70 67 69 73
55 86 99 95 74 49 47 48 54 69 76 79 80 81 83 82 80 80 79 79 82 78 80 94 96 96 98 99 100 91 86 75 75 71 72 74 77 80
87 96 96 80 60 49 48 56 73 80 83 87 88 87 84 84 83 86 86 87 89 76 77 82 93 97 96 95 100 92 80 98 73 71 76 81 83 84
99 89 57 46 44 46 53 71 78 80 83 90 91 90 90 91 89 88 88 90 96 90 80 73 80 89 89 90 93 82 77 77 74 79 92 92 85 86
82 59 52 51 52 54 69 78 81 83 89 90 91 94 95 94 91 87 94 96 96 91 86 80 85 88 81 85 94 88 80 87 82 92 100 100 100 90
54 56 56 55 54 65 82 86 84 87 89 91 94 95 96 96 97 92 94 96 95 91 86 88 94 98 98 100 82 98 97 94 94 93 94 100 100 84
57 56 55 56 64 83 88 89 88 89 90 93 96 99 97 98 95 96 98 100 98 96 96 85 89 97 98 98 99 78 83 96 97 95 92 92 92 85
56 55 58 68 86 91 92 92 93 91 95 99 97 99 100 98 96 98 98 100 100 97 94 89 89 95 98 97 100 93 75 76 94 98 96 98 96 94
59 60 72 89 93 93 93 94 91 89 95 96 99 100 100 97 96 96 97 100 93 94 95 98 100 97 99 100 98 100 100 81 77 79 82 98 98 98
67 78 92 94 95 93 94 93 93 90 97 100 100 100 100 96 100 98 95 94 97 98 98 100 100 99 98 100 100 100 97 88 95 97 72 76 96 98

GFSNE_850_rhum_027.txt.gz
RH
53 55 55 56 54 46 35 25 23 33 37 32 27 22 25 26 26 27 28 29 26 24 26 33 82 95 96 96 94 92 89 94 96 94 95 98 98 100
60 55 54 57 48 36 27 23 29 36 46 39 31 28 28 26 27 34 35 35 33 37 34 31 83 97 96 95 94 94 92 92 98 99 99 99 99 98
58 56 57 56 42 28 26 32 36 37 40 36 38 39 43 39 32 34 33 35 30 26 29 47 98 100 99 97 97 97 99 99 98 99 100 99 99 100
73 75 53 44 30 31 35 34 31 29 38 42 50 54 59 52 57 56 46 34 32 36 41 59 96 88 98 100 100 100 98 98 100 98 99 98 96 99
64 53 42 36 33 34 30 24 25 34 40 55 70 72 74 65 63 56 48 40 43 47 48 53 56 63 100 100 100 100 100 99 98 95 96 98 99 100
54 50 32 33 29 21 21 25 32 39 53 68 75 87 89 70 71 69 60 46 61 54 51 61 60 66 65 56 56 52 52 52 57 94 98 100 100 100
39 34 30 21 18 20 25 32 48 68 67 81 96 95 87 85 81 70 67 78 74 62 58 70 67 60 52 54 56 54 54 54 62 98 100 100 100 99
68 25 19 19 20 22 31 44 62 78 94 99 98 99 92 88 76 75 88 94 98 82 71 68 66 58 58 58 56 56 56 59 98 100 100 100 100 99
21 18 19 19 18 22 28 38 47 57 94 99 95 90 88 69 84 94 98 100 98 76 78 74 69 61 61 61 58 58 57 57 76 98 100 100 100 100
22 20 19 20 22 29 40 70 85 86 85 79 80 74 82 94 96 100 100 94 81 75 78 78 67 68 70 62 58 54 57 60 63 75 100 100 99 100
22 22 24 25 19 24 92 100 95 74 68 70 67 75 90 87 81 85 77 87 82 78 77 85 74 82 77 69 66 65 67 67 69 72 85 100 100 100
30 28 21 23 49 98 100 98 88 68 71 65 56 63 66 67 73 80 85 93 96 95 88 98 90 98 95 84 80 78 70 67 66 67 71 80 100 100
19 19 26 39 77 100 99 87 71 93 95 74 62 65 66 69 72 76 82 88 95 96 77 100 93 92 100 97 85 74 74 70 72 67 67 71 78 96
28 33 38 66 98 98 67 46 69 89 57 67 72 71 72 73 75 77 80 83 89 90 77 87 96 98 97 94 90 76 78 80 76 73 74 70 72 77
31 44 91 87 75 47 41 40 45 55 73 76 75 75 81 83 81 81 78 79 77 75 78 82 94 96 100 99 99 92 88 78 79 77 78 78 79 78
78 95 97 83 53 45 45 48 62 76 81 83 83 83 85 87 85 87 82 82 82 71 76 80 85 95 95 96 100 92 84 98 75 72 78 84 85 86
100 78 66 50 46 45 46 62 77 81 84 86 86 88 91 90 86 86 88 89 95 87 76 74 83 89 90 92 93 82 79 79 73 81 91 93 81 80
56 49 48 50 51 51 60 76 81 85 89 89 90 97 95 92 89 88 94 95 94 88 86 83 85 87 80 82 95 91 82 85 82 91 100 100 97 91
46 51 53 54 53 62 82 86 85 89 92 91 96 96 94 94 97 95 94 95 92 91 87 87 94 100 98 100 74 93 96 94 99 93 92 100 100 92
52 54 55 58 67 84 87 90 91 91 92 94 95 98 99 100 98 98 96 96 92 89 90 86 91 100 98 97 99 76 80 97 96 95 92 90 84 80
55 57 63 74 88 90 92 93 94 95 95 99 100 100 100 100 100 96 96 97 98 96 97 90 85 93 100 97 100 88 75 79 94 97 96 97 94 90
61 65 81 93 93 94 93 95 94 94 94 96 98 100 100 100 100 96 97 97 94 94 93 92 89 97 98 97 96 94 89 82 79 82 88 98 99 97
68 79 91 93 94 94 96 96 95 95 96 98 100 100 100 100 100 96 96 95 92 96 100 100 100 100 100 100 100 98 94 93 93 84 70 83 96 96

GFSNE_850_rhum_030.txt.gz
RH
73 68 57 54 54 56 55 55 38 28 26 28 29 27 26 24 24 24 22 20 20 21 19 19 21 35 77 95 96 95 94 92 94 88 89 93 99 99
68 70 59 62 56 54 53 46 30 28 36 36 32 27 27 26 26 26 22 24 25 24 22 22 37 94 98 97 97 100 100 99 97 100 99 99 99 99
63 75 70 67 67 66 41 32 33 35 41 35 31 29 31 28 24 23 27 28 25 22 22 28 56 98 99 100 100 100 100 100 100 100 100 100 100 99
71 90 86 66 73 70 62 42 37 37 37 33 34 34 35 31 36 45 40 37 32 26 33 44 50 54 70 94 100 100 100 100 100 100 100 100 100 100
91 90 93 63 46 40 36 36 32 29 32 38 41 45 49 49 57 53 54 33 29 38 47 48 49 51 51 71 99 99 99 96 97 98 98 97 96 97
96 92 92 74 75 73 34 22 22 27 32 41 53 60 77 68 72 65 60 49 54 51 47 53 52 53 52 54 57 57 57 59 90 99 100 99 100 100
99 99 76 69 94 45 20 21 28 31 44 56 66 93 89 74 74 77 73 71 65 49 49 53 54 51 49 53 54 55 56 56 57 98 100 100 100 98
95 97 98 64 20 20 24 32 39 42 51 82 93 94 83 82 85 77 90 92 94 58 66 69 62 54 55 59 58 57 57 55 59 98 100 100 100 100
99 88 25 21 22 20 21 26 29 35 65 93 96 84 93 80 89 97 96 88 83 66 73 73 64 58 59 60 59 57 54 55 57 59 82 100 100 100
30 23 22 21 20 18 18 35 62 70 75 76 79 79 89 97 100 99 89 85 84 69 75 84 60 66 66 61 58 56 58 61 64 66 97 100 100 98
26 24 23 20 18 18 71 97 94 84 78 72 69 77 73 65 67 74 75 85 82 74 77 86 71 81 72 63 61 65 68 70 70 69 70 80 100 100
30 24 23 21 29 68 100 98 98 74 58 52 48 48 58 65 72 79 85 91 96 94 87 97 81 86 98 83 78 74 67 65 65 67 71 75 88 100
18 19 27 38 76 100 100 94 65 85 83 55 47 60 64 69 72 76 83 90 96 93 79 100 91 92 100 98 79 71 70 68 68 67 69 74 80 90
21 37 62 98 100 79 61 46 61 72 45 54 68 70 70 72 75 78 83 84 88 88 80 89 96 94 99 94 88 74 77 74 74 74 75 72 74 78
54 72 78 80 74 56 41 41 42 47 66 76 76 74 78 81 81 81 79 82 79 78 81 84 90 92 98 100 99 85 87 71 79 76 74 76 76 79
62 68 61 50 44 42 43 45 52 72 79 82 83 82 83 84 83 88 88 90 84 72 77 81 85 96 95 92 95 86 78 97 71 72 77 81 84 85
48 43 44 43 42 41 42 53 73 78 80 84 87 87 88 88 86 90 94 94 96 87 74 73 80 85 85 82 92 80 79 79 75 78 92 91 82 79
41 40 41 42 43 45 56 75 81 84 88 90 89 92 92 91 90 90 99 95 90 85 83 81 82 83 77 73 81 92 84 80 80 92 100 100 90 79
37 41 42 44 48 62 82 86 84 88 92 92 91 94 94 94 97 98 90 89 87 86 83 84 87 98 98 99 74 93 97 94 96 87 88 95 100 91
45 47 49 54 68 86 90 91 90 91 93 93 91 95 100 100 98 100 98 95 93 88 88 82 85 98 100 99 100 74 78 96 97 96 93 90 83 79
49 51 57 71 89 92 94 94 94 94 95 96 97 100 100 100 100 100 98 91 97 96 97 84 85 98 100 98 100 91 76 80 97 96 95 98 93 90
51 53 68 90 93 95 95 95 94 95 95 94 96 100 100 100 100 100 91 93 96 97 92 84 93 100 100 100 97 97 91 79 78 89 96 98 97 95
50 57 76 88 92 93 95 95 95 95 96 94 96 94 97 97 96 92 87 95 100 98 99 100 100 100 100 100 99 96 93 89 90 79 70 85 94 96

GFSNE_850_rhum_033.txt.gz
RH
94 79 57 53 63 74 58 55 51 49 45 37 32 36 31 30 27 24 22 20 17 12 13 14 14 16 25 54 95 96 96 94 94 93 99 99 92 91
83 76 66 71 83 73 64 61 57 54 33 40 42 36 31 26 24 25 24 22 16 18 15 16 18 23 54 96 98 99 97 100 100 99 100 100 100 100
79 70 77 84 80 74 78 76 59 44 50 39 43 34 22 24 23 23 23 22 20 14 14 18 22 47 90 98 97 98 98 100 100 100 100 99 100 100
75 80 86 80 86 87 85 84 80 73 72 47 31 23 26 23 25 23 27 24 26 18 17 24 40 44 45 47 57 98 100 100 97 98 100 98 99 100
79 86 88 95 97 93 91 90 94 94 80 53 30 30 30 26 28 34 38 34 23 17 30 44 45 47 45 46 73 83 71 81 86 96 98 99 98 96
88 92 96 98 98 91 94 97 98 66 31 38 41 45 45 38 48 55 52 40 30 31 47 46 48 48 46 51 53 52 52 52 52 53 93 99 100 100
98 100 100 100 99 100 99 90 34 25 26 39 51 54 67 67 85 79 72 59 54 49 46 49 49 46 45 49 50 52 53 53 54 58 96 100 100 100
100 100 100 100 100 94 32 26 28 23 30 68 70 68 88 74 77 74 74 94 100 52 63 80 58 49 50 54 53 52 52 53 54 59 97 100 100 99
100 100 99 88 33 28 27 24 22 29 42 80 89 77 95 92 76 85 93 96 86 61 81 94 60 59 58 55 52 54 53 53 56 59 64 98 100 100
100 88 35 28 26 23 17 14 19 35 54 70 87 89 73 74 100 100 88 97 94 69 79 97 59 67 63 56 52 52 56 60 62 62 80 100 100 100
27 29 28 28 17 12 18 34 59 76 83 78 60 54 67 64 67 76 78 89 91 78 79 89 68 84 68 56 55 58 61 64 65 67 69 72 94 100
30 28 17 10 14 29 98 100 98 80 55 38 41 43 52 66 74 81 86 88 94 93 78 95 79 83 100 64 70 70 63 62 63 66 68 70 75 100
17 16 25 37 62 100 100 96 70 84 65 49 42 58 69 72 74 79 85 90 91 86 78 100 89 83 99 99 66 68 74 68 67 66 70 74 78 80
26 39 52 77 96 84 69 49 40 47 40 47 67 69 70 73 75 79 81 83 87 87 80 94 95 92 98 95 92 74 71 70 74 71 72 70 71 75
42 53 71 66 52 41 38 39 40 44 61 74 74 74 76 76 77 78 80 82 78 76 80 82 85 87 94 100 100 88 82 66 69 71 70 72 75 79
46 46 39 36 36 40 42 44 50 70 77 78 78 80 80 80 82 86 83 82 74 67 73 76 81 90 90 90 100 81 75 96 74 70 79 79 83 82
33 36 37 39 40 41 45 57 76 79 81 85 87 86 85 85 83 86 85 81 82 78 72 73 81 82 82 88 87 74 84 85 76 84 95 86 77 79
37 39 41 42 42 47 63 76 82 84 86 88 89 88 87 86 83 83 86 86 84 79 79 81 79 80 79 78 88 80 87 98 83 87 97 100 94 79
40 43 44 45 51 70 82 82 82 86 89 91 91 90 91 90 87 88 93 95 87 84 83 90 90 100 100 99 87 98 94 85 97 87 83 92 96 75
42 45 46 52 68 85 84 86 87 89 91 93 92 92 94 96 93 93 100 100 92 89 94 88 88 99 100 100 99 74 86 97 96 92 88 89 88 79
42 44 49 59 85 90 90 91 92 92 94 94 94 94 99 100 94 96 100 97 95 91 97 89 82 93 100 95 96 98 75 88 97 96 95 96 82 79
41 45 55 72 90 92 90 90 89 91 94 95 94 96 96 96 95 96 95 96 88 91 93 90 87 98 100 99 100 100 87 70 74 88 96 97 97 95
44 45 52 69 86 89 89 88 90 91 95 99 100 98 96 94 94 95 94 95 93 99 96 94 100 100 100 100 100 99 92 81 80 76 73 85 94 97

GFSNE_850_rhum_036.txt.gz
RH
96 99 95 92 72 54 50 50 51 53 57 49 43 41 33 32 34 32 30 23 18 15 12 7 6 6 5 8 8 24 75 95 96 96 94 99 95 99
99 100 96 83 72 58 52 60 77 80 53 48 39 44 59 52 42 50 26 20 18 13 11 12 10 10 12 20 64 96 99 98 100 100 100 99 99 100
100 100 99 95 84 66 70 82 80 69 74 85 74 62 80 94 78 26 26 28 20 14 13 15 14 13 23 65 72 83 97 98 100 99 100 100 99 100
100 100 100 94 74 80 82 83 91 98 93 92 97 97 96 94 70 26 25 18 18 14 16 15 15 24 34 36 39 45 95 98 100 100 100 99 98 96
100 100 86 75 89 89 94 96 99 98 99 100 99 97 72 30 27 23 29 35 26 16 16 16 30 38 38 40 42 48 67 57 70 82 92 97 100 100
100 94 94 95 94 96 100 100 99 99 99 99 94 56 38 35 29 43 66 81 77 22 25 40 41 39 40 41 42 42 44 47 48 49 51 69 88 98
94 91 94 97 99 99 100 100 99 99 98 59 44 42 64 90 84 86 90 85 80 32 52 72 75 51 49 45 43 42 46 50 52 52 54 74 96 98
88 95 99 100 100 100 99 100 95 56 35 54 70 92 83 85 89 89 92 94 94 47 90 93 82 74 56 48 45 48 50 52 53 55 67 97 100 100
100 100 100 100 100 99 87 33 27 28 27 87 97 90 90 92 99 86 98 100 100 81 100 96 66 77 63 54 49 49 51 52 53 54 58 78 100 100
100 100 100 96 64 28 27 22 19 15 30 55 86 98 98 97 96 98 98 100 100 95 96 97 75 90 85 66 53 51 52 55 57 58 60 79 98 100
86 40 29 27 24 20 19 20 30 73 95 76 66 54 49 54 63 93 86 100 100 96 94 98 80 92 91 60 56 60 58 59 61 64 66 69 74 95
28 25 19 14 18 32 63 97 96 80 80 52 94 73 39 43 61 71 80 90 98 100 95 91 90 99 100 67 73 74 66 68 68 66 63 65 69 96
17 14 25 28 28 40 67 81 71 57 58 48 38 45 64 68 72 78 80 86 88 86 78 100 86 87 100 100 76 72 67 60 72 70 70 70 73 90
23 24 25 30 31 35 52 60 48 40 52 42 52 72 80 75 77 79 83 86 87 81 78 93 97 90 93 93 90 67 66 60 64 61 67 70 71 73
28 35 36 41 45 40 35 35 36 37 44 63 73 74 77 77 78 79 78 80 80 75 75 79 85 86 94 96 95 76 90 62 61 67 75 77 82 86
42 39 37 36 34 36 36 36 40 54 72 77 78 76 78 78 77 81 82 83 80 72 80 76 77 87 87 85 94 79 82 100 72 74 81 81 85 86
40 39 38 39 42 42 42 50 67 76 79 82 82 82 82 82 80 84 84 85 85 80 73 74 82 87 87 90 87 74 77 83 93 86 100 100 93 99
41 38 40 39 39 42 57 76 82 85 86 87 89 90 89 89 86 86 87 93 96 87 84 76 80 91 90 90 98 80 87 91 81 98 100 100 99 98
38 40 41 43 46 59 80 83 84 88 90 91 92 92 93 91 92 88 88 92 90 92 90 88 100 100 100 100 95 99 98 83 87 90 89 100 100 87
44 43 46 48 55 76 86 85 86 88 91 94 94 93 94 94 92 91 92 95 95 92 89 86 82 95 100 100 100 92 93 94 98 98 97 94 86 81
45 44 46 51 60 79 84 84 83 85 90 94 95 95 96 98 96 95 95 95 96 95 92 84 76 83 93 93 100 98 97 98 99 96 92 100 100 82
47 46 47 52 60 77 83 83 82 84 87 93 95 97 97 98 96 96 95 95 93 93 92 82 77 90 100 99 96 96 89 87 90 97 97 96 97 98
48 45 42 46 53 67 77 79 80 80 84 90 95 96 97 97 95 96 97 95 94 93 90 86 88 99 99 98 99 97 95 91 94 91 88 94 93 86

GFSNE_850_rhum_039.txt.gz
RH
100 100 100 98 93 99 98 71 49 47 66 51 47 48 48 48 50 36 33 36 38 49 32 15 12 8 5 5 5 5 6 28 83 96 95 94 94 96
100 100 100 98 100 99 78 62 66 60 59 59 59 70 64 61 44 62 68 82 88 78 59 19 9 6 6 7 6 7 25 60 94 96 96 100 100 98
100 100 100 100 100 100 96 96 89 95 87 83 85 64 51 70 85 91 97 97 91 52 19 10 7 8 8 8 9 16 47 85 97 99 100 100 99 97
100 100 100 100 100 100 99 98 100 90 84 94 77 86 99 99 98 100 98 63 29 24 12 7 10 14 12 16 25 29 36 76 93 98 98 99 100 100
100 100 100 100 100 100 99 94 90 92 94 97 98 99 100 100 100 94 77 35 20 16 17 19 34 23 24 33 36 36 44 55 60 74 81 83 92 98
100 100 100 100 99 93 90 94 98 100 100 100 100 99 98 96 79 34 26 36 40 34 34 38 32 35 36 38 40 40 41 42 42 46 50 57 66 71
100 100 100 99 98 98 98 97 99 100 100 100 99 96 63 55 49 66 82 74 61 45 35 40 64 62 50 46 43 45 45 46 50 53 55 66 88 95
100 100 99 100 99 100 100 100 100 98 98 96 50 36 60 82 82 86 86 80 72 34 67 54 63 57 51 47 47 50 52 55 53 54 58 89 96 96
100 100 100 100 99 100 100 99 91 45 26 31 66 88 91 86 87 84 74 73 67 42 82 65 57 57 52 48 51 52 53 53 54 55 56 67 98 100
99 100 100 100 98 78 38 22 20 20 24 47 74 82 87 93 92 91 88 82 72 69 94 96 61 66 57 50 50 54 51 54 58 59 61 66 97 100
99 97 58 29 24 19 14 15 34 60 94 90 69 55 48 39 37 48 43 61 65 72 72 88 65 75 60 51 52 55 60 61 62 60 60 62 67 95
28 28 20 12 11 16 24 82 99 99 95 74 65 82 71 35 36 47 58 66 86 99 92 84 74 84 94 63 63 67 60 57 63 62 61 67 73 100
21 19 21 25 31 40 50 65 82 66 47 48 60 50 51 66 73 76 77 80 81 80 70 98 83 86 98 100 67 54 61 60 66 65 66 70 68 88
25 31 37 28 30 33 41 51 40 32 30 36 41 54 74 78 77 74 74 77 80 79 80 91 95 85 88 89 84 64 64 62 63 60 62 67 73 77
26 26 31 36 35 31 28 27 29 31 35 45 65 80 82 76 76 78 76 77 76 75 75 79 86 84 91 93 96 73 75 59 57 63 64 71 72 79
70 63 33 31 29 28 31 32 33 40 55 71 76 77 77 78 78 81 81 80 81 75 78 84 85 94 99 100 100 88 74 100 68 68 74 80 75 80
35 41 42 44 41 43 41 42 56 73 80 81 78 77 80 84 84 87 87 89 91 82 77 87 96 98 100 100 100 86 82 83 87 94 100 100 99 94
40 55 59 61 58 59 56 64 80 82 82 81 84 87 88 88 88 87 88 90 88 87 87 87 98 100 99 97 100 91 92 90 86 96 100 100 98 91
44 53 49 51 52 53 59 73 78 82 86 87 87 87 89 88 89 88 87 89 89 92 91 93 99 100 100 100 91 97 92 93 91 89 88 95 100 85
47 43 42 44 45 49 59 75 78 82 84 86 88 90 91 91 90 90 92 96 98 93 90 87 99 93 100 100 100 100 83 82 89 93 94 99 98 90
44 42 41 40 41 47 58 74 80 82 83 83 84 86 90 93 92 93 95 97 100 100 98 90 84 89 97 96 100 95 83 93 100 98 95 98 98 97
44 43 42 40 38 43 52 66 74 76 77 79 82 84 91 96 98 97 96 97 96 96 94 89 85 87 100 100 100 91 93 92 98 94 100 98 95 99
41 42 40 37 36 40 45 53 59 63 66 70 75 80 94 99 99 97 96 95 95 95 97 95 93 100 100 98 100 99 94 98 97 96 100 99 94 92

GFSNE_850_rhum_042.txt.gz
RH
97 99 100 100 99 98 95 87 80 92 87 71 72 79 61 61 70 72 62 52 42 36 45 66 84 83 76 26 11 5 5 6 9 54 95 96 96 94
99 98 100 100 100 100 100 100 97 97 92 86 82 85 93 95 86 72 75 58 49 79 91 94 94 61 22 15 10 6 7 9 39 93 98 97 96 96
99 99 99 99 100 99 100 100 100 98 89 89 100 98 97 96 78 84 67 75 98 98 95 94 44 31 22 14 8 8 7 25 71 92 97 100 100 100
99 100 100 100 100 100 100 100 100 100 99 100 99 99 95 95 84 83 99 100 99 99 94 66 24 15 14 16 20 15 26 30 71 87 97 99 100 100
98 99 99 100 100 100 100 100 100 99 99 98 99 100 99 98 99 100 100 100 95 75 36 27 42 27 21 24 35 43 43 38 66 80 81 94 96 96
98 99 100 99 99 100 100 100 98 97 100 100 100 100 100 100 99 99 80 39 30 24 32 38 27 21 21 41 51 57 47 44 49 67 84 88 82 73
99 100 100 97 98 99 99 100 100 100 100 100 99 99 98 94 66 40 38 44 51 32 42 22 26 34 38 46 48 48 49 53 82 92 97 99 100 100
99 98 100 100 100 100 100 100 100 100 100 100 99 96 53 50 63 76 77 74 52 27 45 21 48 43 47 51 51 50 60 85 95 98 99 98 100 100
100 99 98 99 100 100 100 98 98 98 70 42 32 54 71 85 81 79 75 68 44 39 60 41 55 52 53 51 51 52 54 56 67 63 64 76 89 97
99 98 98 98 98 99 95 62 33 22 36 50 52 48 53 54 64 67 56 44 40 39 65 61 54 53 50 49 52 52 53 57 60 61 62 67 86 100
99 97 80 53 33 23 21 22 40 63 83 86 76 60 45 37 40 39 33 41 37 51 58 68 60 59 51 45 50 54 56 57 61 61 62 81 98 99
28 25 22 21 18 28 39 46 74 86 80 77 64 43 45 36 36 54 52 61 67 73 81 76 68 78 71 48 48 52 51 54 59 60 58 60 94 100
25 28 25 26 27 28 28 37 51 55 51 44 33 33 36 47 67 72 73 75 74 77 72 91 71 73 88 84 46 47 53 56 57 55 51 59 64 75
26 30 33 29 30 29 29 31 33 34 31 31 34 39 57 66 70 76 75 76 77 75 74 84 82 78 85 86 81 52 53 55 58 55 54 60 67 69
26 26 28 32 31 28 28 27 28 29 30 34 46 64 71 72 71 74 77 74 72 70 72 76 81 80 89 97 97 68 79 57 59 66 62 66 69 70
37 39 33 34 32 34 35 36 35 37 46 60 68 69 70 74 77 80 81 82 83 73 76 77 82 91 91 100 100 93 72 94 72 69 78 78 71 73
28 31 33 36 35 35 39 40 44 58 68 71 70 70 74 77 79 83 85 88 96 83 72 71 78 96 100 100 100 94 78 74 76 79 81 81 73 70
34 37 36 36 38 37 38 40 51 65 70 72 75 79 80 82 82 84 88 91 92 88 86 84 93 100 100 98 99 87 83 88 82 85 86 93 88 77
40 38 38 37 35 37 40 45 57 73 76 78 79 79 82 86 92 92 92 94 91 92 90 95 100 100 100 100 83 96 98 95 91 92 79 83 87 77
41 40 38 39 37 38 41 48 59 73 76 78 80 81 83 85 89 95 96 98 95 92 90 88 94 100 100 99 99 88 85 82 80 83 82 86 87 93
39 39 40 39 38 38 40 46 53 64 73 76 77 78 78 81 82 93 99 98 99 98 97 89 88 95 100 99 97 90 74 76 78 89 92 97 95 100
38 37 36 37 38 38 39 42 46 50 56 60 61 64 69 75 82 98 97 97 96 96 96 91 90 97 100 100 100 98 83 73 77 86 100 97 99 100
38 37 36 37 38 37 38 40 42 45 48 50 54 60 68 80 97 98 97 98 98 98 97 96 96 95 92 99 100 100 99 95 97 100 100 90 86 77

GFSNE_850_rhum_048.txt.gz
RH
83 84 93 100 100 100 100 100 100 100 97 96 96 94 87 79 85 85 83 82 97 89 99 100 100 100 100 99 94 88 95 99 83 55 37 43 65 70
86 87 80 88 99 91 95 98 100 100 100 100 96 94 95 91 87 85 83 98 98 100 100 98 100 100 100 100 100 100 100 80 69 45 67 90 94 95
79 92 96 96 86 91 94 90 96 99 100 100 98 88 96 100 100 100 100 100 100 98 100 98 99 99 100 100 100 99 86 72 68 59 93 96 95 93
95 92 99 98 97 98 99 100 100 100 100 98 99 99 98 100 100 100 100 99 100 100 100 100 98 99 100 100 98 97 87 56 52 50 86 96 95 97
77 93 99 97 98 98 99 98 99 99 100 99 98 100 100 100 100 100 100 99 100 100 99 99 99 99 97 92 81 62 64 77 92 90 97 100 100 99
100 98 97 95 94 93 96 99 100 100 99 100 100 100 100 99 100 100 99 100 99 99 99 98 72 54 45 41 35 28 37 27 38 58 78 87 95 98
99 94 97 93 97 95 97 100 100 99 100 100 99 100 100 100 100 100 100 98 98 95 65 52 45 38 28 24 20 22 26 36 43 46 56 96 100 100
88 90 96 95 95 96 95 98 99 100 100 100 100 100 100 100 99 98 94 68 63 60 57 39 50 24 19 29 36 40 45 50 53 74 84 94 100 100
90 92 94 97 99 98 99 100 97 98 96 98 97 94 86 66 64 70 64 70 69 69 67 27 23 22 43 49 52 52 52 55 56 60 66 71 80 94
88 88 89 90 90 87 86 65 46 39 31 31 37 47 53 55 58 59 63 66 62 57 56 29 32 44 51 55 54 53 56 57 58 57 55 54 54 53
19 18 16 15 13 12 12 14 19 28 45 56 52 66 71 68 66 58 61 64 45 29 48 54 50 51 48 46 46 49 57 59 57 57 56 56 56 55
11 12 14 17 19 20 18 21 23 30 41 54 61 65 68 54 39 48 58 49 63 63 65 69 61 62 54 54 57 61 60 61 60 60 59 57 57 56
16 19 22 20 20 22 24 24 27 28 26 30 29 30 30 36 40 46 63 75 80 80 79 88 80 79 74 60 53 59 59 56 59 59 62 60 60 63
24 25 27 24 24 26 29 30 31 28 29 29 30 35 38 46 61 71 76 80 82 81 84 89 90 90 96 77 65 51 54 54 56 54 57 58 61 64
24 28 34 35 36 35 34 32 32 33 33 35 36 46 61 70 70 72 73 75 78 78 82 86 85 97 100 100 82 59 67 50 55 52 58 60 59 59
29 32 33 33 38 38 36 37 39 40 44 51 62 69 72 73 71 74 74 76 77 77 84 88 90 100 100 100 100 71 65 73 56 60 61 56 57 58
38 36 36 34 33 32 33 36 39 43 49 57 65 70 72 76 76 79 79 78 81 78 77 82 90 94 94 94 93 82 72 71 70 68 73 71 63 62
34 36 38 34 32 32 32 32 35 38 46 56 72 74 76 77 76 76 76 78 77 77 79 80 85 87 84 79 80 77 77 75 72 79 82 84 72 62
31 33 33 33 33 33 32 31 30 36 43 53 65 71 74 76 76 72 71 72 72 74 78 81 82 85 91 91 81 80 84 83 86 84 82 83 79 62
30 30 30 32 32 32 33 33 32 33 38 44 50 57 64 64 63 61 61 64 68 74 81 80 84 95 97 96 100 78 78 81 80 80 72 72 70 66
29 30 31 30 30 30 30 30 30 31 33 37 41 45 48 52 52 54 58 64 78 93 92 87 87 93 97 100 98 79 69 74 79 80 72 81 78 83
27 27 28 29 28 27 28 28 28 30 32 35 39 42 45 49 52 60 75 92 93 94 92 87 86 89 92 94 89 82 72 66 67 75 78 86 92 100
26 26 26 27 28 28 28 29 29 31 34 38 41 46 55 69 88 95 96 97 97 95 91 86 90 95 94 95 92 86 80 75 74 72 65 68 70 77